Weather in Peschanaya

Ukraine / Odesa District     48°07′37″N   29°43′46″E
temp.,
°C
wind,
m/s
gust,
m/s
humid.,
%
clouds,
%
prec.,
mm/h
press.,
hPa
HPBL,
m
10 may, mon
mon1000:00+8e11596 0.0 102710
03:00+6sse11645 0.0 102710
06:00+6se11650 0.0 102710
09:00+11se23565 0.0 1028352
12:00+15se22450 0.0 10271577
15:00+17se11412 0.0 10251765
18:00+17ne11424 0.0 10241700
21:00+12ene33601 0.0 102438
11 may, tue
tue1100:00+9e37710 0.0 1024122
03:00+7ne22680 0.0 102425
06:00+6nne33721 0.0 102348
09:00+12n575683 0.0 1022569
12:00+16nne565245 0.0 1020997
15:00+19n565736 0.0 10181095
18:00+19nne576582 0.0 10161420
21:00+16nne4107590 0.1 1015511
12 may, wed
wed1200:00+11ene588811 0.1 1017503
03:00+8ene479715 0.1 1016242
06:00+6ene5109324 0.0 1016392
09:00+10ene687495 0.1 10161040
12:00+10e6662100 0.1 10151290
15:00+12ene465983 0.1 10151232
18:00+13ese245673 0.0 10131501
21:00+10ese226162 0.0 101327
13 may, thu
thu1300:00+8sse227133 0.0 101317
03:00+7se337666 0.0 101337
06:00+8ese487529 0.0 1012217
09:00+12se6964100 0.0 1011544
12:00+15se6763100 0.0 1011796
15:00+17sse6962100 0.1 10101575
18:00+14ene1185100 1.6 100926
21:00+13ese1191100 2.6 100813
14 may, fri
fri1400:00+11s229144 0.0 100818
03:00+9sse229121 0.0 100815
06:00+9sse228993 0.0 100923
09:00+15s357820 0.0 1009442
12:00+20s566037 0.0 10091549
15:00+22s684893 0.4 10082445
18:00+18wnw347299 0.0 100987
21:00+15w118191 1.1 101011